www.pogodaiklimat.ru

Погода и климат >> Архив погоды >> Россия >> Чукотка >> Остров Врангеля


АРХИВ ПОГОДЫ на Острове Врангеля

Время (UTC), дата Ветер
(напр.,м/с)
 
Видим.   Явления Облачность Т
(С)
Тd
(С)
f
(%)
Тe
(С)
Тes
(С)
Комфортность P
(гПа)
Po
(гПа)
Тmin
(С)
Tmax
(С)
R
(мм)
R24
(мм)
S
(см)
00 15.09 В 4
{6}
20 км 10/10 600 м
[Sc]
+6.1 +3.8 85 +2 +2 1016.5 1013.9
06 15.09 В 4
{7}
20 км 10/10 600 м
[Sc]
+5.4 +3.3 86 +1 +1 1015.3 1012.7 +6.4
12 15.09 СВ 5
{7}
20 км 10/10 600 м
[Sc]
+4.6 +3.5 93 -0 -0 1015.5 1012.9
18 15.09 СВ 6
{9}
20 км 10/10 600 м
[Sc]
+4.6 +2.8 88 -1 -1 1016.9 1014.3 +4.5
00 16.09 СВ 6
{11}
20 км 10/10 600 м
[Sc]
+5.8 +1.5 74 +1 +1 1019.3 1016.7
06 16.09 СВ 6
{11}
20 км 10/10 600 м
[Sc]
+3.0 +0.1 81 -3 -3 1022.8 1020.2 +5.9
12 16.09 С 6
{9}
20 км 8/5 600 м
[Sc Ac trans]
+0.9 -0.9 88 -6 -6 1024.9 1022.2
18 16.09 С 5
{10}
20 км 4/4 600 м
[Sc]
-0.5 -1.9 90 -7 -7 1025.8 1023.1 -0.5
00 17.09 СЗ 7
{13}
20 км 3/1 600 м
[Sc Ac trans]
+3.4 -0.4 76 -2 -2 1025.0 1022.4
06 17.09 СЗ 2
{9}
20 км 5/3 600 м
[Sc Ac trans]
+1.8 -1.8 77 -1 -1 1023.7 1021.0 +4.8
12 17.09 СЗ 8-12
{12}
20 км 8/6 600 м
[Sc Ac trans]
+2.1 -0.2 85 -5 -5 1021.5 1018.9
18 17.09 СЗ 4
{12}
20 км 9/8 300 м
[Sc Ac trans]
+1.6 -0.8 84 -3 -3 1019.3 1016.6 +1.1
00 18.09 С 7
{10}
20 км в посл. час ливневой дождь 9/8 300 м
[Cb cap Ac trans]
+2.3 +0.9 90 -4 -4 1016.0 1013.4
06 18.09 С 7
{14}
4000 м слаб. ливневой снег 8/8 300 м
[Cb cap]
+1.4 -0.2 89 -5 -5 1013.2 1010.5 +2.6 0.4
12 18.09 С 10-13
{14}
20 км {ливн. осадки} 4/0
[Ac trans]
+1.2 -0.6 88 -7 -7 1010.9 1008.2
18 18.09 С 10-13
{13}
20 км 8/4 600 м
[Sc Ac trans]
+1.8 +0.1 88 -6 -6 1009.9 1007.2 +1.1 0.0
00 19.09 С 10-13
{13}
10 км слаб. дождь 10/4 600 м
[Sc As op]
+2.7 +1.1 89 -5 -5 1008.4 1005.8
06 19.09 С 8-12
{13}
4000 м слаб. ливневой дождь 9/8 300 м
[Cb cap Ac trans]
+1.9 +0.5 90 -5 -5 1007.6 1005.0 +2.8 3
12 19.09 С 10-14
{14}
20 км {ливн. осадки} 10/10 300 м
[Sc]
+1.7 +0.5 92 -6 -6 1008.3 1005.6
18 19.09 С 10-13
{14}
4000 м дождь 10/0 300 м
[As op]
+1.5 +0.2 91 -6 -6 1008.3 1005.6 +1.4 4
00 20.09 С 9-12
{14}
10 км слаб. дождь 10/0 300 м
[As op]
+1.6 -0.4 87 -6 -6 1008.9 1006.2
06 20.09 С 11-15
{16}
20 км {ливн. осадки, дождь} 10/8 600 м
[Sc Ac lent Cs]
-0.3 -2.4 86 -9 -9 1006.7 1004.1 +2.1 0.5
12 20.09 С 12-15
{15}
20 км 9/6 600 м
[Sc Ac trans]
-0.9 -3.9 80 -10 -10 1005.6 1003.0
18 20.09 С 11-15
{15}
20 км 9/5 600 м
[Sc Ac trans]
+0.7 -1.1 88 -8 -8 1002.5 999.9 -1.5
00 21.09 СЗ 7
{15}
20 км 10/8 600 м
[Sc Ac und]
+0.7 -2.0 82 -6 -6 1001.3 998.7
06 21.09 С 9-10
{12}
20 км 8/5 600 м
[Sc Ac trans Ci fib]
-0.2 -3.7 77 -8 -8 1000.1 997.5 +0.8
12 21.09 СЗ 9-11
{14}
20 км 3/0
[Ac lent]
-0.8 -3.6 81 -9 -9 1000.0 997.4
18 21.09 СЗ 3
{11}
20 км 8/0
[Ac trans Ci fib]
-2.0 -5.9 75 -7 -7 999.8 997.2 -2.0

 

Местоположение метеостанции Остров Врангеля (Чукотка, Россия): широта 70.98 долгота -178.00 высота над уровнем моря 21 м.

В архиве по умолчанию представлена погода на Острове Врангеля за последнюю неделю. Архивные данные за месяц целиком и за предыдущие месяцы, начиная с января 2011 года, Вы можете получить, выбрав интересующий диапазон дат из раскрывающегося списка и нажав кнопку "Ввод!".


*Определитесь, кто Вы:
робот инопланетянин человек

Внимание! Время в таблицах - всемирное. Для получения местного времени необходимо прибавить поправку, которая равна 12 ч.

Смотрите также архив погоды в соседних городах и на ближайших метеорологических станциях:

Погода на Мысе Шмидта (Чукотка, Россия) (238 км)
Погода на Мысе Биллингс (Чукотка, Россия) (265 км)
Погода в Паляваам-Глубокой (Чукотка, Россия) (364 км)
Погода на Мысе Ванкарем (Чукотка, Россия) (369 км)
Погода в Комсомольской (Чукотка, Россия) (404 км)
Погода в Майской (Чукотка, Россия) (423 км)
Погода в Валькаркае (Чукотка, Россия) (423 км)
Погода на 21 км (Чукотка, Россия) (444 км)
Погода в Певеке (Чукотка, Россия) (463 км)
Погода в Чауне (Чукотка, Россия) (489 км)

Пояснения к столбцам:

Ветер - указаны скорость ветра в м/с - средняя за 10 мин, порывы в срок и между сроками (в фигурных скобках) и направление, откуда дует ветер: С - северный, СВ - северо-восточный, В - восточный, ЮВ - юго-восточный, Ю - южный, ЮЗ - юго-западный, З - западный, СЗ - северо-западный.
Видимость - горизонтальная дальность видимости в метрах или километрах. При видимости от 1 до 10 км при отсутствии осадков обычно наблюдается дымка, при ухудшении видимости до 1 км и менее - туман. В сухую погоду видимость может ухудшаться дымом, пылью или мглою.
Явления - указаны атмосферные явления, наблюдавшиеся в срок или в последний час перед сроком; фигурными скобками обозначены явления, наблюдавшиеся между сроками (за 1-3 часа до срока); квадратными скобками обозначены град или гололедные отложения с указанием их диаметра в мм.
Облачность - указаны через наклонную черту общая и нижняя облачность в баллах и высота нижней границы облаков в метрах; квадратными скобками обозначены формы облаков: Ci - перистые, Cs - перисто-слоистые, Cc - перисто-кучевые, Ac - высококучевые, As - высокослоистые, Sc - слоисто-кучевые, Ns - слоисто-дождевые, Cu - кучевые, Cb - кучево-дождевые. Подробнее классификацию облаков см. в Атласе облаков (PDF).
T - Температура воздуха - температура, измеренная на высоте 2 м над землей.
Td - Температура точки росы - температура, при понижении до которой содержащийся в воздухе водяной пар достигнет насыщения.
f - Относительная влажность воздуха - влажноcть воздуха, измеренная на высоте 2 м над землей.
Te - Эффективная температура - температура, которую ощущает одетый по сезону человек в тени. Характеристика душности погоды. При расчете учитывается влияние влажности воздуха и скорости ветра на теплоощущения человека.
Tes - Эффективная температура на солнце - температура, которую ощущает человек, с поправкой на солнечный нагрев. Характеристика знойности погоды. Зависит от высоты солнца над горизонтом, облачности и скорости ветра. Ночью, в пасмурную погоду, а также при ветре 12 м/с и более поправка равна нулю.
P - Атмосферное давление - приведенное к уровню моря атмосферное давление.
Po - Атмосферное давление - измеренное на уровне метеостанции атмосферное давление.
Tmin - Минимальная температура - минимум температуры воздуха на высоте 2 м над землей.
Tmax - Максимальная температура - максимум температуры воздуха на высоте 2 м над землей.
R - Количество осадков - Количество выпавших осадков за период времени, мм. При наведении курсора мыши на число - период времени, за который выпало указанное количество осадков.
R24 - Количество осадков - Количество выпавших осадков за 24 часа, мм.
S - Снежный покров - Высота снежного покрова, см. При наведении курсора мыши на число - состояние снежного покрова и степень покрытия местности в баллах.